AFR770 LFPG-TFFR

Flight info

Callsign AFR770
Flight time 8h 26m
Altitude 33000
Route LGL UT190 GODIX/N0484F350 DCT DIDAK DCT AKEMO DCT RIVAK/M084F350 UN460 SIVIR DCT BERUX/N0485F350 DCT KOPAS/M084F340 DCT 40N020W/M084F360 3630N03000W 32N040W 26N050W/M084F380 DCT BNJEE/N0485F380 DCT BOSET BOSET2A
Aircraft B77W/H-SDE1E2E3FGHIJ2J3J4J5M1RWXY/LB1D1

Departure

Time 2026-04-13 13:21
Airport Charles de Gaulle International Airport (LFPG)

Arrival

Time 2026-04-13 21:48
Airport Maryse Condé International Airport (TFFR)
Time Latitude Longitude Altitude Speed Heading
2026-04-13 12:48 49.00692 2.58577 364 ft 0 kts 266°
2026-04-13 13:08 49.00692 2.58581 357 ft 3 kts 266°
2026-04-13 13:08 49.00694 2.58621 366 ft 4 kts 265°
2026-04-13 13:08 49.00696 2.58658 362 ft 4 kts 277°
2026-04-13 13:09 49.00685 2.58689 366 ft 4 kts 330°
2026-04-13 13:09 49.00661 2.58701 364 ft 2 kts 354°
2026-04-13 13:09 49.00659 2.58702 363 ft 0 kts 355°
2026-04-13 13:12 49.00660 2.58702 363 ft 2 kts 355°
2026-04-13 13:12 49.00717 2.58694 364 ft 15 kts 355°
2026-04-13 13:13 49.00830 2.58713 364 ft 16 kts 38°
2026-04-13 13:13 49.00859 2.58866 359 ft 20 kts 83°
2026-04-13 13:13 49.00873 2.59124 361 ft 28 kts 86°
2026-04-13 13:13 49.00901 2.59364 361 ft 12 kts 45°
2026-04-13 13:14 49.00979 2.59370 365 ft 10 kts 319°
2026-04-13 13:14 49.00992 2.59254 360 ft 13 kts 266°
2026-04-13 13:14 49.00981 2.59099 365 ft 16 kts 255°
2026-04-13 13:14 49.00952 2.58920 365 ft 19 kts 261°
2026-04-13 13:15 49.00937 2.58705 363 ft 22 kts 268°
2026-04-13 13:15 49.00926 2.58461 363 ft 24 kts 265°
2026-04-13 13:15 49.00934 2.58261 366 ft 13 kts 303°
2026-04-13 13:15 49.01021 2.58225 359 ft 15 kts 355°
2026-04-13 13:16 49.01144 2.58210 363 ft 20 kts 355°
2026-04-13 13:16 49.01297 2.58191 359 ft 24 kts 355°
2026-04-13 13:16 49.01474 2.58166 360 ft 28 kts 355°
2026-04-13 13:16 49.01674 2.58143 359 ft 28 kts 356°
2026-04-13 13:17 49.01813 2.58124 362 ft 14 kts 354°
2026-04-13 13:17 49.01923 2.58086 363 ft 17 kts 337°
2026-04-13 13:17 49.02021 2.57983 367 ft 17 kts 310°
2026-04-13 13:17 49.02077 2.57823 367 ft 17 kts 284°
2026-04-13 13:18 49.02087 2.57642 362 ft 18 kts 265°
2026-04-13 13:18 49.02077 2.57447 365 ft 19 kts 266°
2026-04-13 13:18 49.02067 2.57235 362 ft 21 kts 265°
2026-04-13 13:18 49.02096 2.57092 365 ft 13 kts 332°
2026-04-13 13:19 49.02196 2.57067 365 ft 16 kts
2026-04-13 13:19 49.02255 2.57060 364 ft 0 kts 354°
2026-04-13 13:19 49.02262 2.57059 363 ft 4 kts 354°
2026-04-13 13:20 49.02301 2.57042 367 ft 8 kts 329°
2026-04-13 13:20 49.02353 2.56979 366 ft 11 kts 320°
2026-04-13 13:20 49.02360 2.56872 363 ft 12 kts 266°
2026-04-13 13:20 49.02359 2.56835 359 ft 9 kts 266°
2026-04-13 13:21 49.02340 2.56474 358 ft 73 kts 265°
2026-04-13 13:21 49.02277 2.55280 364 ft 152 kts 265°
2026-04-13 13:21 49.02195 2.53406 622 ft 190 kts 267°
2026-04-13 13:21 49.02094 2.51294 1175 ft 205 kts 266°
2026-04-13 13:22 49.01953 2.49212 2338 ft 190 kts 264°
2026-04-13 13:22 49.01815 2.47132 2855 ft 210 kts 265°
2026-04-13 13:22 49.01682 2.44761 3046 ft 240 kts 266°
2026-04-13 13:22 49.01550 2.42179 3700 ft 248 kts 266°
2026-04-13 13:23 49.01414 2.39563 4564 ft 249 kts 265°
2026-04-13 13:23 49.01273 2.36952 5262 ft 255 kts 265°
2026-04-13 13:23 49.01276 2.34233 5839 ft 261 kts 284°
2026-04-13 13:23 49.02152 2.31827 6489 ft 264 kts 314°
2026-04-13 13:24 49.03396 2.29770 7019 ft 266 kts 298°
2026-04-13 13:24 49.03812 2.27055 7623 ft 267 kts 263°
2026-04-13 13:24 49.03369 2.24307 8244 ft 268 kts 253°
2026-04-13 13:24 49.02860 2.21545 8912 ft 274 kts 255°
2026-04-13 13:25 49.02387 2.18745 9746 ft 273 kts 256°
2026-04-13 13:25 49.01938 2.15911 10365 ft 279 kts 256°
2026-04-13 13:25 49.01024 2.09770 10793 ft 322 kts 257°
2026-04-13 13:26 49.00534 2.06317 10962 ft 345 kts 257°
2026-04-13 13:26 49.00027 2.02664 11449 ft 359 kts 257°
2026-04-13 13:26 48.99514 1.98904 12238 ft 365 kts 257°
2026-04-13 13:26 48.99000 1.95095 13157 ft 369 kts 257°
2026-04-13 13:27 48.98483 1.91246 14018 ft 373 kts 257°
2026-04-13 13:27 48.97961 1.87358 14823 ft 376 kts 256°
2026-04-13 13:27 48.97435 1.83448 15702 ft 378 kts 255°
2026-04-13 13:27 48.96908 1.79528 16573 ft 380 kts 255°
2026-04-13 13:28 48.96382 1.75632 17391 ft 382 kts 254°
2026-04-13 13:28 48.95840 1.71643 18143 ft 388 kts 255°
2026-04-13 13:28 48.95289 1.67593 18789 ft 393 kts 255°
2026-04-13 13:28 48.94733 1.63509 19487 ft 396 kts 254°
2026-04-13 13:29 48.94174 1.59404 20177 ft 398 kts 253°
2026-04-13 13:29 48.93606 1.55261 20842 ft 402 kts 253°
2026-04-13 13:29 48.93030 1.51069 21472 ft 406 kts 252°
2026-04-13 13:29 48.92449 1.46848 22124 ft 410 kts 252°
2026-04-13 13:30 48.91862 1.42601 22768 ft 413 kts 252°
2026-04-13 13:30 48.91275 1.38368 23391 ft 416 kts 251°
2026-04-13 13:30 48.90674 1.34038 23934 ft 420 kts 251°
2026-04-13 13:30 48.90064 1.29675 24398 ft 425 kts 256°
2026-04-13 13:31 48.89441 1.25230 24645 ft 435 kts 257°
2026-04-13 13:31 48.88810 1.20709 25095 ft 439 kts 257°
2026-04-13 13:31 48.88175 1.16168 25660 ft 440 kts 257°
2026-04-13 13:31 48.87535 1.11616 26174 ft 442 kts 257°
2026-04-13 13:32 48.86889 1.07040 26628 ft 445 kts 257°
2026-04-13 13:32 48.86234 1.02419 27041 ft 449 kts 257°
2026-04-13 13:32 48.85581 0.97830 27471 ft 452 kts 257°
2026-04-13 13:32 48.84913 0.93148 27909 ft 455 kts 257°
2026-04-13 13:33 48.84239 0.88437 28314 ft 458 kts 258°
2026-04-13 13:33 48.83557 0.83697 28714 ft 461 kts 260°
2026-04-13 13:33 48.82871 0.78931 29099 ft 463 kts 260°
2026-04-13 13:33 48.82180 0.74141 29464 ft 466 kts 260°
2026-04-13 13:34 48.81484 0.69328 29811 ft 468 kts 260°
2026-04-13 13:34 48.80783 0.64506 30223 ft 468 kts 260°
2026-04-13 13:34 48.80052 0.59720 30602 ft 467 kts 256°
2026-04-13 13:34 48.78855 0.55121 30912 ft 472 kts 245°
2026-04-13 13:35 48.77130 0.50937 31278 ft 476 kts 236°
2026-04-13 13:35 48.74972 0.47141 31652 ft 478 kts 226°
2026-04-13 13:35 48.72480 0.43791 32006 ft 479 kts 224°
2026-04-13 13:36 48.67382 0.37115 32244 ft 489 kts 225°
2026-04-13 13:36 48.64825 0.33738 32619 ft 486 kts 226°
2026-04-13 13:36 48.62293 0.30370 33037 ft 485 kts 226°
2026-04-13 13:37 48.57252 0.23616 33004 ft 487 kts 226°
2026-04-13 13:37 48.52215 0.16873 32997 ft 482 kts 226°
2026-04-13 13:38 48.47195 0.10174 33005 ft 481 kts 226°
2026-04-13 13:38 48.42179 0.03496 32994 ft 481 kts 226°
2026-04-13 13:39 48.37186 -0.03233 33000 ft 480 kts 230°
2026-04-13 13:39 48.32974 -0.10799 33017 ft 472 kts 240°
2026-04-13 13:40 48.29094 -0.18810 33389 ft 475 kts 239°
2026-04-13 13:40 48.27121 -0.22772 33826 ft 472 kts 238°
2026-04-13 13:40 48.25244 -0.26771 34256 ft 465 kts 243°
2026-04-13 13:40 48.23611 -0.30932 34557 ft 462 kts 245°
2026-04-13 13:41 48.22008 -0.35111 34772 ft 463 kts 245°
2026-04-13 13:41 48.20424 -0.39246 34912 ft 464 kts 245°
2026-04-13 13:41 48.18805 -0.43452 34966 ft 467 kts 245°
2026-04-13 13:42 48.15543 -0.51852 35013 ft 465 kts 244°
2026-04-13 13:42 48.12281 -0.60180 35019 ft 462 kts 244°
2026-04-13 13:43 48.09028 -0.68454 35020 ft 461 kts 244°
2026-04-13 13:43 48.05802 -0.76639 35024 ft 460 kts 244°
2026-04-13 13:44 48.02543 -0.84886 35022 ft 461 kts 244°
2026-04-13 13:44 47.99272 -0.93134 35009 ft 462 kts 244°
2026-04-13 13:45 47.95990 -1.01385 35013 ft 463 kts 244°
2026-04-13 13:45 47.92697 -1.09639 35019 ft 463 kts 244°
2026-04-13 13:46 47.89419 -1.17831 35020 ft 464 kts 244°
2026-04-13 13:46 47.86101 -1.26094 35019 ft 464 kts 244°
2026-04-13 13:47 47.82787 -1.34325 35014 ft 464 kts 244°
2026-04-13 13:47 47.79467 -1.42542 35018 ft 463 kts 244°
2026-04-13 13:48 47.76146 -1.50738 35008 ft 462 kts 244°
2026-04-13 13:48 47.72845 -1.58863 35023 ft 462 kts 244°
2026-04-13 13:49 47.69521 -1.67021 35023 ft 462 kts 244°
2026-04-13 13:49 47.66188 -1.75176 35029 ft 462 kts 244°
2026-04-13 13:50 47.62849 -1.83319 35029 ft 462 kts 244°
2026-04-13 13:50 47.59503 -1.91454 35019 ft 462 kts 244°
2026-04-13 13:51 47.56175 -1.99522 35027 ft 462 kts 244°
2026-04-13 13:51 47.52820 -2.07631 35043 ft 462 kts 244°
2026-04-13 13:52 47.49459 -2.15733 35036 ft 462 kts 244°
2026-04-13 13:52 47.46096 -2.23814 35044 ft 462 kts 243°
2026-04-13 13:53 47.42745 -2.31840 35052 ft 462 kts 243°
2026-04-13 13:53 47.39365 -2.39913 35050 ft 462 kts 243°
2026-04-13 13:54 47.35979 -2.47978 35052 ft 462 kts 243°
2026-04-13 13:54 47.32587 -2.56034 35049 ft 462 kts 243°
2026-04-13 13:55 47.29210 -2.64031 35055 ft 463 kts 243°
2026-04-13 13:55 47.25805 -2.72070 35060 ft 463 kts 243°
2026-04-13 13:56 47.22383 -2.80126 35058 ft 464 kts 243°
2026-04-13 13:56 47.18961 -2.88161 35063 ft 464 kts 243°
2026-04-13 13:57 47.15547 -2.96208 35061 ft 462 kts 245°
2026-04-13 13:57 47.12906 -3.04655 35062 ft 455 kts 256°
2026-04-13 13:58 47.11106 -3.13525 35070 ft 453 kts 258°
2026-04-13 13:58 47.09331 -3.22413 35068 ft 454 kts 258°
2026-04-13 13:59 47.07528 -3.31302 35049 ft 455 kts 258°
2026-04-13 13:59 47.05722 -3.40115 35067 ft 455 kts 257°
2026-04-13 14:00 47.03891 -3.48993 35067 ft 455 kts 257°
2026-04-13 14:00 47.02054 -3.57865 35067 ft 455 kts 257°
2026-04-13 14:01 47.00222 -3.66671 35068 ft 455 kts 257°
2026-04-13 14:01 46.98373 -3.75526 35064 ft 454 kts 257°
2026-04-13 14:02 46.96521 -3.84352 35063 ft 454 kts 257°
2026-04-13 14:02 46.94662 -3.93173 35062 ft 453 kts 257°
2026-04-13 14:03 46.92798 -4.01983 35060 ft 453 kts 257°
2026-04-13 14:03 46.90941 -4.10722 35052 ft 453 kts 257°
2026-04-13 14:04 46.89067 -4.19501 35043 ft 452 kts 257°
2026-04-13 14:04 46.87189 -4.28262 35067 ft 451 kts 257°
2026-04-13 14:05 46.85306 -4.37012 35068 ft 451 kts 257°
2026-04-13 14:05 46.83415 -4.45762 35059 ft 452 kts 257°
2026-04-13 14:06 46.81530 -4.54443 35064 ft 452 kts 257°
2026-04-13 14:06 46.79624 -4.63189 35055 ft 452 kts 257°
2026-04-13 14:07 46.77712 -4.71922 35061 ft 452 kts 257°
2026-04-13 14:07 46.75790 -4.80664 35058 ft 453 kts 257°
2026-04-13 14:08 46.73874 -4.89346 35052 ft 453 kts 257°
2026-04-13 14:08 46.71939 -4.98073 35054 ft 452 kts 257°
2026-04-13 14:09 46.70000 -5.06786 35061 ft 452 kts 257°
2026-04-13 14:09 46.68058 -5.15476 35057 ft 451 kts 256°
2026-04-13 14:10 46.66109 -5.24161 35047 ft 451 kts 256°
2026-04-13 14:10 46.64168 -5.32772 35048 ft 450 kts 256°
2026-04-13 14:11 46.62211 -5.41421 35046 ft 450 kts 256°
2026-04-13 14:11 46.60249 -5.50058 35045 ft 450 kts 256°
2026-04-13 14:12 46.58281 -5.58689 35049 ft 450 kts 256°
2026-04-13 14:12 46.56321 -5.67247 35029 ft 450 kts 256°
2026-04-13 14:13 46.54341 -5.75862 35036 ft 449 kts 256°
2026-04-13 14:13 46.52355 -5.84467 35044 ft 449 kts 256°
2026-04-13 14:14 46.49362 -5.97366 35041 ft 450 kts 256°
2026-04-13 14:14 46.47372 -6.05905 35016 ft 450 kts 256°
2026-04-13 14:15 46.45363 -6.14488 35032 ft 449 kts 256°
2026-04-13 14:15 46.43350 -6.23056 35039 ft 449 kts 256°
2026-04-13 14:16 46.41328 -6.31629 35032 ft 450 kts 256°
2026-04-13 14:16 46.39298 -6.40200 35034 ft 450 kts 256°
2026-04-13 14:17 46.37276 -6.48706 35039 ft 449 kts 257°
2026-04-13 14:17 46.35233 -6.57266 35038 ft 450 kts 257°
2026-04-13 14:18 46.33182 -6.65828 35031 ft 450 kts 256°
2026-04-13 14:18 46.31123 -6.74390 35029 ft 451 kts 256°
2026-04-13 14:19 46.29072 -6.82884 35012 ft 451 kts 257°
2026-04-13 14:19 46.27000 -6.91433 35021 ft 450 kts 257°
2026-04-13 14:20 46.24924 -6.99969 35022 ft 450 kts 257°
2026-04-13 14:20 46.22842 -7.08495 35026 ft 450 kts 257°
2026-04-13 14:21 46.20754 -7.17011 35025 ft 450 kts 257°
2026-04-13 14:21 46.18676 -7.25453 35011 ft 449 kts 257°
2026-04-13 14:22 46.16581 -7.33939 35020 ft 449 kts 257°
2026-04-13 14:22 46.14480 -7.42416 35020 ft 449 kts 257°
2026-04-13 14:23 46.12372 -7.50889 35014 ft 449 kts 257°
2026-04-13 14:23 46.10256 -7.59363 35000 ft 449 kts 257°
2026-04-13 14:24 46.08151 -7.67760 35008 ft 449 kts 257°
2026-04-13 14:24 46.06008 -7.76277 35014 ft 449 kts 257°
2026-04-13 14:25 46.03874 -7.84737 35011 ft 450 kts 257°
2026-04-13 14:25 46.01736 -7.93194 35014 ft 449 kts 258°
2026-04-13 14:26 46.00349 -8.01802 35003 ft 437 kts 269°
2026-04-13 14:26 45.99960 -8.10435 35006 ft 429 kts 277°
2026-04-13 14:27 46.00000 -8.17569 34996 ft 430 kts 277°
2026-04-13 14:27 46.00040 -8.26161 34997 ft 430 kts 277°
2026-04-13 14:28 46.00054 -8.34762 34998 ft 430 kts 276°
2026-04-13 14:28 46.00055 -8.43374 34995 ft 430 kts 276°
2026-04-13 14:29 46.00048 -8.51918 34991 ft 430 kts 276°
2026-04-13 14:29 46.00037 -8.60531 34987 ft 430 kts 276°
2026-04-13 14:30 45.99959 -8.69140 34984 ft 435 kts 271°
2026-04-13 14:30 45.98478 -8.77736 34972 ft 451 kts 258°
2026-04-13 14:31 45.95542 -8.85775 34999 ft 463 kts 247°
2026-04-13 14:31 45.92078 -8.93654 34993 ft 463 kts 247°
2026-04-13 14:32 45.88649 -9.01456 34972 ft 461 kts 247°
2026-04-13 14:32 45.85259 -9.09259 34954 ft 460 kts 248°
2026-04-13 14:33 45.81886 -9.17055 34956 ft 459 kts 248°
2026-04-13 14:33 45.78518 -9.24824 34960 ft 459 kts 248°
2026-04-13 14:34 45.75142 -9.32586 34961 ft 459 kts 248°
2026-04-13 14:34 45.71758 -9.40348 34968 ft 460 kts 248°
2026-04-13 14:35 45.68381 -9.48067 34946 ft 461 kts 248°
2026-04-13 14:35 45.64970 -9.55842 34954 ft 462 kts 248°
2026-04-13 14:36 45.61553 -9.63604 34957 ft 461 kts 248°
2026-04-13 14:36 45.58134 -9.71353 34958 ft 461 kts 248°
2026-04-13 14:37 45.54741 -9.79023 34904 ft 460 kts 248°
2026-04-13 14:37 45.51322 -9.86729 34938 ft 459 kts 248°
2026-04-13 14:38 45.47907 -9.94409 34945 ft 459 kts 248°
2026-04-13 14:38 45.44485 -10.02084 34957 ft 459 kts 248°
2026-04-13 14:39 45.41055 -10.09755 34938 ft 459 kts 248°
2026-04-13 14:39 45.37647 -10.17354 34940 ft 458 kts 248°
2026-04-13 14:40 45.34218 -10.24978 34951 ft 457 kts 248°
2026-04-13 14:40 45.30792 -10.32577 34951 ft 457 kts 248°
2026-04-13 14:41 45.27363 -10.40164 34950 ft 456 kts 248°
2026-04-13 14:41 45.23931 -10.47739 34932 ft 456 kts 248°
2026-04-13 14:42 45.20518 -10.55250 34951 ft 456 kts 248°
2026-04-13 14:42 45.17078 -10.62799 34959 ft 456 kts 248°
2026-04-13 14:43 45.13661 -10.70279 34959 ft 456 kts 248°
2026-04-13 14:43 45.10188 -10.77863 34962 ft 456 kts 248°
2026-04-13 14:44 45.06761 -10.85325 34961 ft 455 kts 248°
2026-04-13 14:44 45.03311 -10.92822 34955 ft 454 kts 248°
2026-04-13 14:45 44.99859 -11.00302 34966 ft 455 kts 248°
2026-04-13 14:45 44.96324 -11.07697 34970 ft 457 kts 246°
2026-04-13 14:46 44.92695 -11.15122 34947 ft 457 kts 246°
2026-04-13 14:46 44.89111 -11.22453 34974 ft 457 kts 246°
2026-04-13 14:47 44.85504 -11.29847 34960 ft 458 kts 246°
2026-04-13 14:47 44.81892 -11.37240 34975 ft 458 kts 246°
2026-04-13 14:48 44.78274 -11.44629 34977 ft 458 kts 246°
2026-04-13 14:48 44.74674 -11.51962 34967 ft 458 kts 246°
2026-04-13 14:49 44.71044 -11.59334 34961 ft 459 kts 246°
2026-04-13 14:49 44.67415 -11.66683 34970 ft 457 kts 246°
2026-04-13 14:50 44.63791 -11.74008 34972 ft 456 kts 246°
2026-04-13 14:50 44.60188 -11.81273 34984 ft 457 kts 246°
2026-04-13 14:51 44.56551 -11.88589 34974 ft 458 kts 246°
2026-04-13 14:51 44.52898 -11.95920 34983 ft 459 kts 246°
2026-04-13 14:52 44.49252 -12.03215 34993 ft 461 kts 246°
2026-04-13 14:52 44.45560 -12.10583 34966 ft 463 kts 246°
2026-04-13 14:53 44.41880 -12.17906 35021 ft 464 kts 245°
2026-04-13 14:53 44.38157 -12.25299 34985 ft 465 kts 245°
2026-04-13 14:54 44.34432 -12.32668 34986 ft 463 kts 245°
2026-04-13 14:54 44.30722 -12.39994 34983 ft 461 kts 245°
2026-04-13 14:55 44.27043 -12.47243 34991 ft 460 kts 245°
2026-04-13 14:55 44.23343 -12.54518 34997 ft 460 kts 245°
2026-04-13 14:56 44.19641 -12.61780 34995 ft 460 kts 245°
2026-04-13 14:56 44.15927 -12.69046 34998 ft 461 kts 245°
2026-04-13 14:57 44.12227 -12.76264 35004 ft 461 kts 245°
2026-04-13 14:58 44.06628 -12.87154 35001 ft 462 kts 244°
2026-04-13 14:58 44.02886 -12.94413 35005 ft 462 kts 244°
2026-04-13 14:59 43.99139 -13.01669 35004 ft 462 kts 245°
2026-04-13 14:59 43.95460 -13.08886 35004 ft 461 kts 245°
2026-04-13 15:00 43.91766 -13.16163 34990 ft 461 kts 244°
2026-04-13 15:00 43.88069 -13.23419 35010 ft 460 kts 244°
2026-04-13 15:01 43.84369 -13.30655 35017 ft 460 kts 244°
2026-04-13 15:01 43.80683 -13.37843 35011 ft 461 kts 244°
2026-04-13 15:02 43.76962 -13.45081 35019 ft 462 kts 244°
2026-04-13 15:02 43.73233 -13.52317 35010 ft 462 kts 244°
2026-04-13 15:03 43.69491 -13.59558 35023 ft 463 kts 244°
2026-04-13 15:03 43.65738 -13.66802 35025 ft 464 kts 244°
2026-04-13 15:04 43.62008 -13.73984 35031 ft 464 kts 244°
2026-04-13 15:04 43.58242 -13.81218 35030 ft 464 kts 244°
2026-04-13 15:05 43.54479 -13.88429 35009 ft 463 kts 243°
2026-04-13 15:05 43.50712 -13.95630 35025 ft 463 kts 243°
2026-04-13 15:06 43.46939 -14.02826 35040 ft 463 kts 243°
2026-04-13 15:06 43.43186 -14.09966 35041 ft 464 kts 243°
2026-04-13 15:07 43.39400 -14.17150 35032 ft 464 kts 243°
2026-04-13 15:07 43.35610 -14.24324 35031 ft 464 kts 243°
2026-04-13 15:08 43.31816 -14.31487 35026 ft 463 kts 242°
2026-04-13 15:08 43.28055 -14.38572 35035 ft 462 kts 242°
2026-04-13 15:09 43.24268 -14.45691 35046 ft 462 kts 242°
2026-04-13 15:09 43.20475 -14.52802 35049 ft 462 kts 242°
2026-04-13 15:10 43.16703 -14.59859 35035 ft 462 kts 242°
2026-04-13 15:10 43.12902 -14.66950 35049 ft 462 kts 242°
2026-04-13 15:11 43.09099 -14.74030 35053 ft 462 kts 242°
2026-04-13 15:11 43.05293 -14.81098 35040 ft 462 kts 242°
2026-04-13 15:12 43.01483 -14.88156 35052 ft 462 kts 242°
2026-04-13 15:12 42.97688 -14.95172 35042 ft 462 kts 241°
2026-04-13 15:13 42.93862 -15.02226 35062 ft 462 kts 241°
2026-04-13 15:13 42.90033 -15.09269 35068 ft 462 kts 241°
2026-04-13 15:14 42.86196 -15.16310 35064 ft 462 kts 241°
2026-04-13 15:14 42.82387 -15.23283 35065 ft 462 kts 241°
2026-04-13 15:15 42.78545 -15.30301 35062 ft 462 kts 241°
2026-04-13 15:15 42.74701 -15.37305 35074 ft 462 kts 240°
2026-04-13 15:16 42.70854 -15.44300 35073 ft 462 kts 240°
2026-04-13 15:16 42.66999 -15.51291 35080 ft 462 kts 240°
2026-04-13 15:17 42.63164 -15.58232 35076 ft 462 kts 240°
2026-04-13 15:17 42.59296 -15.65214 35059 ft 463 kts 240°
2026-04-13 15:18 42.55426 -15.72183 35073 ft 462 kts 240°
2026-04-13 15:18 42.51563 -15.79124 35073 ft 461 kts 240°
2026-04-13 15:19 42.47695 -15.86057 35094 ft 461 kts 240°
2026-04-13 15:19 42.43848 -15.92939 35094 ft 461 kts 240°
2026-04-13 15:20 42.39975 -15.99852 35080 ft 461 kts 239°
2026-04-13 15:20 42.36101 -16.06748 35097 ft 460 kts 239°
2026-04-13 15:21 42.32223 -16.13634 35097 ft 460 kts 239°
2026-04-13 15:21 42.28372 -16.20459 35101 ft 460 kts 239°
2026-04-13 15:22 42.24496 -16.27314 35093 ft 459 kts 239°
2026-04-13 15:22 42.20617 -16.34157 35103 ft 459 kts 239°
2026-04-13 15:23 42.16732 -16.40997 35096 ft 459 kts 239°
2026-04-13 15:23 42.12840 -16.47832 35112 ft 460 kts 239°
2026-04-13 15:24 42.08963 -16.54625 35117 ft 461 kts 239°
2026-04-13 15:24 42.05048 -16.61470 35117 ft 462 kts 239°
2026-04-13 15:25 42.01123 -16.68315 35113 ft 462 kts 238°
2026-04-13 15:25 41.97195 -16.75151 35112 ft 462 kts 238°
2026-04-13 15:26 41.93283 -16.81942 35127 ft 463 kts 238°
2026-04-13 15:26 41.89337 -16.88779 35129 ft 463 kts 238°
2026-04-13 15:27 41.85387 -16.95607 35129 ft 463 kts 238°
2026-04-13 15:27 41.81435 -17.02423 35132 ft 463 kts 238°
2026-04-13 15:28 41.77503 -17.09188 35122 ft 463 kts 238°
2026-04-13 15:28 41.73548 -17.15978 35133 ft 462 kts 238°
2026-04-13 15:29 41.69593 -17.22753 35133 ft 462 kts 238°
2026-04-13 15:29 41.65636 -17.29518 35134 ft 462 kts 237°
2026-04-13 15:30 41.61702 -17.36227 35152 ft 462 kts 237°
2026-04-13 15:30 41.57735 -17.42978 35144 ft 462 kts 237°
2026-04-13 15:31 41.53763 -17.49721 35141 ft 462 kts 237°
2026-04-13 15:31 41.49785 -17.56461 35146 ft 462 kts 237°
2026-04-13 15:32 41.45830 -17.63147 35146 ft 462 kts 237°
2026-04-13 15:32 41.41840 -17.69876 35150 ft 463 kts 237°
2026-04-13 15:33 41.37846 -17.76598 35150 ft 463 kts 237°
2026-04-13 15:33 41.33876 -17.83264 35152 ft 462 kts 237°
2026-04-13 15:34 41.27882 -17.93301 35153 ft 462 kts 237°
2026-04-13 15:34 41.23884 -17.99979 35161 ft 462 kts 237°
2026-04-13 15:35 41.19880 -18.06651 35162 ft 462 kts 237°
2026-04-13 15:35 41.15901 -18.13268 35143 ft 461 kts 236°
2026-04-13 15:36 41.11897 -18.19910 35161 ft 461 kts 236°
2026-04-13 15:36 41.07891 -18.26543 35166 ft 461 kts 236°
2026-04-13 15:37 41.03879 -18.33170 35172 ft 461 kts 236°
2026-04-13 15:37 40.99862 -18.39793 35172 ft 461 kts 236°
2026-04-13 15:38 40.95837 -18.46414 35164 ft 461 kts 236°
2026-04-13 15:38 40.91841 -18.52972 35171 ft 461 kts 236°
2026-04-13 15:39 40.87812 -18.59570 35162 ft 461 kts 236°
2026-04-13 15:39 40.83780 -18.66160 35169 ft 461 kts 236°
2026-04-13 15:40 40.79743 -18.72745 35180 ft 461 kts 236°
2026-04-13 15:40 40.75726 -18.79282 35181 ft 462 kts 236°
2026-04-13 15:41 40.71673 -18.85863 35181 ft 462 kts 236°
2026-04-13 15:41 40.67613 -18.92441 35186 ft 463 kts 236°
2026-04-13 15:42 40.63552 -18.99008 35186 ft 463 kts 236°
2026-04-13 15:42 40.59480 -19.05577 35178 ft 463 kts 235°
2026-04-13 15:43 40.55432 -19.12096 35177 ft 463 kts 235°
2026-04-13 15:43 40.51353 -19.18648 35192 ft 463 kts 235°
2026-04-13 15:44 40.47271 -19.25194 35202 ft 463 kts 235°
2026-04-13 15:44 40.43184 -19.31731 35200 ft 463 kts 235°
2026-04-13 15:45 40.39100 -19.38253 35180 ft 463 kts 235°
2026-04-13 15:45 40.35035 -19.44729 35202 ft 463 kts 235°
2026-04-13 15:46 40.30941 -19.51236 35202 ft 462 kts 235°
2026-04-13 15:46 40.26849 -19.57729 35191 ft 462 kts 234°
2026-04-13 15:47 40.22755 -19.64210 35202 ft 462 kts 234°
2026-04-13 15:47 40.18686 -19.70641 35205 ft 462 kts 234°
2026-04-13 15:48 40.14583 -19.77110 35200 ft 462 kts 234°
2026-04-13 15:48 40.10481 -19.83565 35203 ft 462 kts 234°
2026-04-13 15:49 40.06375 -19.90014 35207 ft 461 kts 234°
2026-04-13 15:49 40.02334 -19.96442 35207 ft 459 kts 238°
2026-04-13 15:50 39.99069 -20.03522 35205 ft 454 kts 247°
2026-04-13 15:50 39.96677 -20.11090 35221 ft 451 kts 252°
2026-04-13 15:51 39.94463 -20.18751 35216 ft 452 kts 252°
2026-04-13 15:51 39.92230 -20.26414 35212 ft 453 kts 252°
2026-04-13 15:52 39.89993 -20.34016 35208 ft 453 kts 252°
2026-04-13 15:52 39.87726 -20.41675 35209 ft 453 kts 252°
2026-04-13 15:53 39.85451 -20.49329 35205 ft 453 kts 251°
2026-04-13 15:53 39.83175 -20.56969 35209 ft 452 kts 251°
2026-04-13 15:54 39.80913 -20.64541 35212 ft 452 kts 251°
2026-04-13 15:54 39.78637 -20.72137 35211 ft 451 kts 251°
2026-04-13 15:55 39.76358 -20.79725 35214 ft 450 kts 251°
2026-04-13 15:55 39.74078 -20.87294 35216 ft 449 kts 251°
2026-04-13 15:56 39.71812 -20.94793 35217 ft 448 kts 251°
2026-04-13 15:56 39.69530 -21.02327 35217 ft 448 kts 251°
2026-04-13 15:57 39.67245 -21.09848 35215 ft 448 kts 251°
2026-04-13 15:57 39.64957 -21.17361 35211 ft 448 kts 250°
2026-04-13 15:58 39.62666 -21.24860 35216 ft 448 kts 250°
2026-04-13 15:58 39.60382 -21.32317 35212 ft 448 kts 250°
2026-04-13 15:59 39.58076 -21.39823 35219 ft 448 kts 250°
2026-04-13 15:59 39.55764 -21.47329 35214 ft 448 kts 250°
2026-04-13 16:00 39.53447 -21.54831 35221 ft 448 kts 250°
2026-04-13 16:00 39.51141 -21.62275 35219 ft 448 kts 250°
2026-04-13 16:01 39.48816 -21.69763 35217 ft 448 kts 250°
2026-04-13 16:01 39.46486 -21.77245 35203 ft 448 kts 250°
2026-04-13 16:02 39.44154 -21.84714 35219 ft 448 kts 250°
2026-04-13 16:02 39.41814 -21.92187 35217 ft 448 kts 250°
2026-04-13 16:03 39.39484 -21.99608 35218 ft 448 kts 250°
2026-04-13 16:03 39.37133 -22.07075 35217 ft 448 kts 250°
2026-04-13 16:04 39.34778 -22.14537 35224 ft 448 kts 249°
2026-04-13 16:04 39.32420 -22.21985 35221 ft 448 kts 249°
2026-04-13 16:05 39.30069 -22.29395 35222 ft 448 kts 249°
2026-04-13 16:05 39.27702 -22.36832 35222 ft 448 kts 249°
2026-04-13 16:06 39.25329 -22.44271 35221 ft 448 kts 249°
2026-04-13 16:06 39.22951 -22.51703 35220 ft 448 kts 249°
2026-04-13 16:07 39.20570 -22.59126 35221 ft 448 kts 249°
2026-04-13 16:07 39.18204 -22.66484 35221 ft 448 kts 249°
2026-04-13 16:08 39.15814 -22.73895 35222 ft 448 kts 249°
2026-04-13 16:08 39.13420 -22.81300 35224 ft 448 kts 249°
2026-04-13 16:09 39.11021 -22.88701 35220 ft 448 kts 249°
2026-04-13 16:09 39.08633 -22.96048 35221 ft 448 kts 249°
2026-04-13 16:10 39.06224 -23.03440 35224 ft 448 kts 249°
2026-04-13 16:10 39.03810 -23.10827 35216 ft 448 kts 249°
2026-04-13 16:11 39.01393 -23.18207 35229 ft 448 kts 249°
2026-04-13 16:11 38.98981 -23.25553 35227 ft 449 kts 249°
2026-04-13 16:12 38.96543 -23.32957 35223 ft 450 kts 249°
2026-04-13 16:12 38.94096 -23.40367 35221 ft 451 kts 249°
2026-04-13 16:13 38.91643 -23.47777 35222 ft 451 kts 248°
2026-04-13 16:13 38.89203 -23.55130 35209 ft 450 kts 248°
2026-04-13 16:14 38.86747 -23.62512 35219 ft 450 kts 248°
2026-04-13 16:14 38.84282 -23.69901 35223 ft 450 kts 248°
2026-04-13 16:15 38.81819 -23.77265 35224 ft 450 kts 248°
2026-04-13 16:15 38.79350 -23.84628 35219 ft 449 kts 248°
2026-04-13 16:16 38.76895 -23.91932 35220 ft 449 kts 248°
2026-04-13 16:16 38.74421 -23.99275 35217 ft 449 kts 248°
2026-04-13 16:17 38.71943 -24.06608 35217 ft 448 kts 248°
2026-04-13 16:17 38.69479 -24.13882 35219 ft 448 kts 248°
2026-04-13 16:18 38.66998 -24.21187 35220 ft 448 kts 248°
2026-04-13 16:18 38.64512 -24.28489 35220 ft 447 kts 248°
2026-04-13 16:19 38.62023 -24.35784 35222 ft 447 kts 248°
2026-04-13 16:19 38.59546 -24.43024 35217 ft 447 kts 247°
2026-04-13 16:20 38.57050 -24.50299 35224 ft 447 kts 247°
2026-04-13 16:20 38.54546 -24.57582 35227 ft 448 kts 247°
2026-04-13 16:21 38.52035 -24.64865 35218 ft 448 kts 247°
2026-04-13 16:21 38.49519 -24.72147 35225 ft 448 kts 246°
2026-04-13 16:22 38.47016 -24.79372 35225 ft 448 kts 246°
2026-04-13 16:23 38.43232 -24.90257 35218 ft 447 kts 246°
2026-04-13 16:23 38.40709 -24.97496 35224 ft 446 kts 246°
2026-04-13 16:24 38.38201 -25.04674 35212 ft 446 kts 246°
2026-04-13 16:24 38.35674 -25.11887 35221 ft 446 kts 246°
2026-04-13 16:25 38.33138 -25.19109 35226 ft 447 kts 246°
2026-04-13 16:25 38.30595 -25.26335 35221 ft 447 kts 246°
2026-04-13 16:26 38.28060 -25.33518 35225 ft 448 kts 246°
2026-04-13 16:26 38.25500 -25.40756 35227 ft 449 kts 246°
2026-04-13 16:27 38.22930 -25.48002 35226 ft 450 kts 246°
2026-04-13 16:27 38.20353 -25.55252 35210 ft 450 kts 246°
2026-04-13 16:28 38.17772 -25.62494 35220 ft 450 kts 246°
2026-04-13 16:28 38.15202 -25.69690 35233 ft 450 kts 246°
2026-04-13 16:29 38.12612 -25.76924 35226 ft 450 kts 246°
2026-04-13 16:29 38.10020 -25.84144 35225 ft 449 kts 246°
2026-04-13 16:30 38.07426 -25.91353 35227 ft 449 kts 246°
2026-04-13 16:30 38.04852 -25.98492 35228 ft 448 kts 246°
2026-04-13 16:31 38.02256 -26.05672 35233 ft 447 kts 246°
2026-04-13 16:31 37.99659 -26.12838 35229 ft 447 kts 246°
2026-04-13 16:32 37.97060 -26.19994 35211 ft 447 kts 246°
2026-04-13 16:32 37.94474 -26.27094 35229 ft 446 kts 245°
2026-04-13 16:33 37.91869 -26.34232 35212 ft 446 kts 245°
2026-04-13 16:33 37.89262 -26.41359 35229 ft 446 kts 245°
2026-04-13 16:34 37.86655 -26.48468 35232 ft 445 kts 245°
2026-04-13 16:34 37.84060 -26.55530 35227 ft 445 kts 245°
2026-04-13 16:35 37.81444 -26.62629 35223 ft 445 kts 245°
2026-04-13 16:35 37.78826 -26.69718 35225 ft 445 kts 245°
2026-04-13 16:36 37.76206 -26.76798 35222 ft 444 kts 245°
2026-04-13 16:36 37.73602 -26.83816 35222 ft 444 kts 245°
2026-04-13 16:37 37.70975 -26.90882 35224 ft 444 kts 245°
2026-04-13 16:37 37.68345 -26.97939 35227 ft 444 kts 245°
2026-04-13 16:38 37.65712 -27.04986 35221 ft 444 kts 245°
2026-04-13 16:38 37.63093 -27.11981 35221 ft 444 kts 245°
2026-04-13 16:39 37.60450 -27.19023 35224 ft 444 kts 245°
2026-04-13 16:39 37.57801 -27.26067 35221 ft 445 kts 245°
2026-04-13 16:40 37.55145 -27.33110 35215 ft 445 kts 245°
2026-04-13 16:40 37.52507 -27.40094 35219 ft 445 kts 245°
2026-04-13 16:41 37.49843 -27.47126 35218 ft 445 kts 245°
2026-04-13 16:41 37.47177 -27.54151 35217 ft 444 kts 244°
2026-04-13 16:42 37.44508 -27.61167 35213 ft 444 kts 244°
2026-04-13 16:42 37.41855 -27.68123 35214 ft 444 kts 244°
2026-04-13 16:43 37.39186 -27.75108 35213 ft 443 kts 244°
2026-04-13 16:43 37.36512 -27.82089 35211 ft 443 kts 244°
2026-04-13 16:44 37.33836 -27.89059 35209 ft 443 kts 244°
2026-04-13 16:44 37.31175 -27.95975 35208 ft 442 kts 244°
2026-04-13 16:45 37.28493 -28.02931 35213 ft 442 kts 244°
2026-04-13 16:45 37.25807 -28.09881 35231 ft 442 kts 244°
2026-04-13 16:46 37.23126 -28.16804 35211 ft 440 kts 244°
2026-04-13 16:46 37.20475 -28.23633 35204 ft 438 kts 244°
2026-04-13 16:47 37.17811 -28.30480 35208 ft 436 kts 244°
2026-04-13 16:47 37.15152 -28.37300 35212 ft 435 kts 244°
2026-04-13 16:48 37.12493 -28.44106 35208 ft 435 kts 243°
2026-04-13 16:48 37.09847 -28.50864 35213 ft 435 kts 243°
2026-04-13 16:49 37.07178 -28.57665 35209 ft 436 kts 243°
2026-04-13 16:49 37.04494 -28.64489 35205 ft 437 kts 243°
2026-04-13 16:50 37.01809 -28.71304 35207 ft 437 kts 243°
2026-04-13 16:50 36.99132 -28.78080 35201 ft 437 kts 243°
2026-04-13 16:51 36.96433 -28.84899 35203 ft 437 kts 243°
2026-04-13 16:51 36.93732 -28.91710 35200 ft 437 kts 243°
2026-04-13 16:52 36.91028 -28.98511 35209 ft 437 kts 243°
2026-04-13 16:52 36.88341 -29.05257 35203 ft 436 kts 243°
2026-04-13 16:53 36.85638 -29.12029 35204 ft 436 kts 243°
2026-04-13 16:53 36.82930 -29.18798 35201 ft 436 kts 243°
2026-04-13 16:54 36.80220 -29.25559 35205 ft 435 kts 243°
2026-04-13 16:54 36.77507 -29.32310 35200 ft 435 kts 243°
2026-04-13 16:55 36.74810 -29.39009 35198 ft 435 kts 243°
2026-04-13 16:55 36.72092 -29.45747 35197 ft 435 kts 243°
2026-04-13 16:56 36.69373 -29.52472 35196 ft 435 kts 243°
2026-04-13 16:56 36.66648 -29.59199 35195 ft 435 kts 242°
2026-04-13 16:57 36.63937 -29.65878 35196 ft 435 kts 242°
2026-04-13 16:57 36.61204 -29.72594 35202 ft 435 kts 242°
2026-04-13 16:58 36.58930 -29.78174 35197 ft 435 kts 242°
2026-04-13 16:58 36.55749 -29.85964 35199 ft 434 kts 242°
2026-04-13 16:59 36.53009 -29.92661 35199 ft 434 kts 242°
2026-04-13 16:59 36.50268 -29.99343 35193 ft 434 kts 242°
2026-04-13 17:00 36.48038 -30.04934 35198 ft 434 kts 243°
2026-04-13 17:00 36.45431 -30.11699 35198 ft 434 kts 243°
2026-04-13 17:01 36.42405 -30.19554 35193 ft 434 kts 243°
2026-04-13 17:01 36.40231 -30.25158 35194 ft 434 kts 243°
2026-04-13 17:02 36.37605 -30.31898 35187 ft 434 kts 243°
2026-04-13 17:02 36.34542 -30.39734 35192 ft 434 kts 243°
2026-04-13 17:03 36.31902 -30.46473 35189 ft 435 kts 243°
2026-04-13 17:03 36.29696 -30.52092 35204 ft 436 kts 243°
2026-04-13 17:04 36.27035 -30.58860 35205 ft 437 kts 243°
2026-04-13 17:04 36.24368 -30.65626 35189 ft 438 kts 243°
2026-04-13 17:05 36.21693 -30.72400 35190 ft 438 kts 243°
2026-04-13 17:05 36.19015 -30.79168 35191 ft 437 kts 243°
2026-04-13 17:06 36.16353 -30.85881 35191 ft 437 kts 243°
2026-04-13 17:06 36.13672 -30.92627 35184 ft 437 kts 243°
2026-04-13 17:07 36.10990 -30.99361 35193 ft 436 kts 243°
2026-04-13 17:07 36.08307 -31.06084 35187 ft 436 kts 243°
2026-04-13 17:08 36.05640 -31.12754 35199 ft 436 kts 243°
2026-04-13 17:08 36.02955 -31.19454 35193 ft 435 kts 243°
2026-04-13 17:09 36.00263 -31.26157 35195 ft 435 kts 243°
2026-04-13 17:09 35.97568 -31.32856 35194 ft 436 kts 243°
2026-04-13 17:10 35.94886 -31.39506 35192 ft 436 kts 242°
2026-04-13 17:10 35.92182 -31.46198 35194 ft 436 kts 242°
2026-04-13 17:11 35.89477 -31.52880 35188 ft 436 kts 242°
2026-04-13 17:11 35.86764 -31.59568 35190 ft 436 kts 242°
2026-04-13 17:12 35.84064 -31.66210 35193 ft 436 kts 242°
2026-04-13 17:12 35.81341 -31.72895 35194 ft 436 kts 242°
2026-04-13 17:13 35.78613 -31.79577 35190 ft 437 kts 242°
2026-04-13 17:13 35.75880 -31.86259 35196 ft 437 kts 242°
2026-04-13 17:14 35.73161 -31.92892 35202 ft 437 kts 242°
2026-04-13 17:14 35.70423 -31.99560 35202 ft 437 kts 242°
2026-04-13 17:15 35.67678 -32.06229 35194 ft 437 kts 242°
2026-04-13 17:15 35.64930 -32.12893 35196 ft 437 kts 242°
2026-04-13 17:16 35.62179 -32.19552 35193 ft 437 kts 242°
2026-04-13 17:16 35.59440 -32.26166 35197 ft 437 kts 242°
2026-04-13 17:17 35.56676 -32.32829 35188 ft 438 kts 242°
2026-04-13 17:17 35.53903 -32.39499 35181 ft 439 kts 242°
2026-04-13 17:18 35.51125 -32.46168 35197 ft 440 kts 242°
2026-04-13 17:18 35.48355 -32.52805 35200 ft 440 kts 242°
2026-04-13 17:19 35.45561 -32.59486 35205 ft 440 kts 242°
2026-04-13 17:19 35.42763 -32.66163 35189 ft 440 kts 242°
2026-04-13 17:20 35.39962 -32.72833 35191 ft 440 kts 242°
2026-04-13 17:20 35.37160 -32.79493 35189 ft 440 kts 242°
2026-04-13 17:21 35.34377 -32.86094 35206 ft 439 kts 242°
2026-04-13 17:21 35.31571 -32.92737 35209 ft 439 kts 242°
2026-04-13 17:22 35.28763 -32.99373 35193 ft 439 kts 242°
2026-04-13 17:22 35.25952 -33.06001 35193 ft 439 kts 242°
2026-04-13 17:23 35.23157 -33.12578 35198 ft 439 kts 242°
2026-04-13 17:23 35.20343 -33.19188 35206 ft 439 kts 242°
2026-04-13 17:24 35.17518 -33.25808 35206 ft 439 kts 242°
2026-04-13 17:24 35.14695 -33.32412 35195 ft 439 kts 242°
2026-04-13 17:25 35.11884 -33.38976 35199 ft 439 kts 242°
2026-04-13 17:25 35.09049 -33.45583 35209 ft 439 kts 242°
2026-04-13 17:26 35.06209 -33.52187 35208 ft 439 kts 242°
2026-04-13 17:26 35.03365 -33.58790 35208 ft 439 kts 242°
2026-04-13 17:27 34.99110 -33.68644 35209 ft 440 kts 242°
2026-04-13 17:27 34.96259 -33.75229 35207 ft 439 kts 242°
2026-04-13 17:28 34.93402 -33.81814 35207 ft 439 kts 242°
2026-04-13 17:28 34.90543 -33.88393 35190 ft 439 kts 242°
2026-04-13 17:29 34.87701 -33.94922 35205 ft 439 kts 241°
2026-04-13 17:29 34.84836 -34.01488 35201 ft 439 kts 241°
2026-04-13 17:30 34.81966 -34.08052 35209 ft 439 kts 241°
2026-04-13 17:30 34.79093 -34.14615 35211 ft 440 kts 241°
2026-04-13 17:31 34.76226 -34.21149 35211 ft 441 kts 241°
2026-04-13 17:31 34.73331 -34.27732 35210 ft 442 kts 241°
2026-04-13 17:32 34.70430 -34.34319 35210 ft 442 kts 241°
2026-04-13 17:32 34.67522 -34.40908 35210 ft 442 kts 241°
2026-04-13 17:33 34.64629 -34.47450 35210 ft 442 kts 241°
2026-04-13 17:33 34.61718 -34.54021 35210 ft 442 kts 241°
2026-04-13 17:34 34.57345 -34.63869 35208 ft 441 kts 241°
2026-04-13 17:35 34.54430 -34.70418 35209 ft 441 kts 241°
2026-04-13 17:35 34.51534 -34.76912 35213 ft 440 kts 241°
2026-04-13 17:36 34.48618 -34.83436 35212 ft 440 kts 241°
2026-04-13 17:36 34.45702 -34.89950 35212 ft 439 kts 241°
2026-04-13 17:37 34.42784 -34.96456 35212 ft 439 kts 241°
2026-04-13 17:37 34.39886 -35.02907 35211 ft 439 kts 241°
2026-04-13 17:38 34.36961 -35.09404 35212 ft 440 kts 241°
2026-04-13 17:38 34.34031 -35.15901 35214 ft 440 kts 241°
2026-04-13 17:39 34.31095 -35.22397 35213 ft 440 kts 241°
2026-04-13 17:39 34.28174 -35.28849 35217 ft 440 kts 241°
2026-04-13 17:40 34.25229 -35.35343 35207 ft 440 kts 241°
2026-04-13 17:40 34.22284 -35.41824 35218 ft 440 kts 241°
2026-04-13 17:41 34.19332 -35.48307 35217 ft 440 kts 241°
2026-04-13 17:41 34.16378 -35.54785 35216 ft 440 kts 241°
2026-04-13 17:42 34.13440 -35.61214 35219 ft 440 kts 241°
2026-04-13 17:42 34.10479 -35.67682 35214 ft 440 kts 241°
2026-04-13 17:43 34.07516 -35.74144 35214 ft 440 kts 241°
2026-04-13 17:43 34.04550 -35.80598 35207 ft 441 kts 241°
2026-04-13 17:44 34.01594 -35.87020 35217 ft 441 kts 241°
2026-04-13 17:44 33.98609 -35.93493 35216 ft 442 kts 241°
2026-04-13 17:45 33.95615 -35.99973 35221 ft 443 kts 241°
2026-04-13 17:45 33.92614 -36.06457 35218 ft 443 kts 241°
2026-04-13 17:46 33.89612 -36.12931 35222 ft 443 kts 241°
2026-04-13 17:46 33.86623 -36.19365 35219 ft 443 kts 241°
2026-04-13 17:47 33.83613 -36.25835 35222 ft 443 kts 241°
2026-04-13 17:47 33.80600 -36.32296 35220 ft 443 kts 241°
2026-04-13 17:48 33.77586 -36.38749 35222 ft 442 kts 241°
2026-04-13 17:48 33.74590 -36.45152 35223 ft 442 kts 241°
2026-04-13 17:49 33.71574 -36.51584 35225 ft 442 kts 241°
2026-04-13 17:49 33.68549 -36.58025 35222 ft 442 kts 241°
2026-04-13 17:50 33.65528 -36.64448 35221 ft 442 kts 240°
2026-04-13 17:50 33.62520 -36.70829 35220 ft 442 kts 240°
2026-04-13 17:51 33.59489 -36.77249 35224 ft 442 kts 240°
2026-04-13 17:51 33.56455 -36.83663 35222 ft 442 kts 240°
2026-04-13 17:52 33.53418 -36.90070 35226 ft 442 kts 240°
2026-04-13 17:52 33.50380 -36.96472 35225 ft 442 kts 240°
2026-04-13 17:53 33.47854 -37.01783 35224 ft 442 kts 240°
2026-04-13 17:53 33.44317 -37.09208 35226 ft 442 kts 240°
2026-04-13 17:54 33.41270 -37.15593 35225 ft 442 kts 240°
2026-04-13 17:54 33.38219 -37.21974 35222 ft 442 kts 240°
2026-04-13 17:55 33.35186 -37.28307 35223 ft 442 kts 240°
2026-04-13 17:55 33.32133 -37.34671 35223 ft 442 kts 240°
2026-04-13 17:56 33.29072 -37.41039 35224 ft 442 kts 240°
2026-04-13 17:56 33.26005 -37.47407 35229 ft 442 kts 240°
2026-04-13 17:57 33.22952 -37.53738 35225 ft 443 kts 240°
2026-04-13 17:57 33.19870 -37.60118 35227 ft 444 kts 240°
2026-04-13 17:58 33.16778 -37.66505 35227 ft 445 kts 240°
2026-04-13 17:58 33.13683 -37.72889 35229 ft 445 kts 240°
2026-04-13 17:59 33.10579 -37.79279 35225 ft 445 kts 240°
2026-04-13 17:59 33.07494 -37.85619 35226 ft 445 kts 240°
2026-04-13 18:00 33.04388 -37.91991 35225 ft 444 kts 240°
2026-04-13 18:00 33.01283 -37.98350 35225 ft 444 kts 240°
2026-04-13 18:01 32.98198 -38.04655 35229 ft 443 kts 240°
2026-04-13 18:01 32.95091 -38.10997 35228 ft 443 kts 240°
2026-04-13 18:02 32.91984 -38.17327 35229 ft 443 kts 240°
2026-04-13 18:02 32.88871 -38.23659 35225 ft 443 kts 240°
2026-04-13 18:03 32.85754 -38.29988 35228 ft 443 kts 240°
2026-04-13 18:03 32.82653 -38.36272 35229 ft 443 kts 240°
2026-04-13 18:04 32.79527 -38.42597 35226 ft 444 kts 240°
2026-04-13 18:04 32.76402 -38.48909 35228 ft 443 kts 240°
2026-04-13 18:05 32.73273 -38.55219 35231 ft 443 kts 240°
2026-04-13 18:05 32.70143 -38.61519 35228 ft 443 kts 240°
2026-04-13 18:06 32.67034 -38.67768 35226 ft 442 kts 240°
2026-04-13 18:06 32.63902 -38.74050 35231 ft 442 kts 240°
2026-04-13 18:07 32.60769 -38.80326 35229 ft 442 kts 240°
2026-04-13 18:07 32.57653 -38.86556 35229 ft 442 kts 240°
2026-04-13 18:08 32.54516 -38.92816 35228 ft 442 kts 240°
2026-04-13 18:08 32.51373 -38.99080 35231 ft 442 kts 240°
2026-04-13 18:09 32.48226 -39.05341 35226 ft 442 kts 240°
2026-04-13 18:09 32.45072 -39.11604 35236 ft 443 kts 240°
2026-04-13 18:10 32.41932 -39.17829 35232 ft 444 kts 240°
2026-04-13 18:10 32.38764 -39.24101 35232 ft 444 kts 240°
2026-04-13 18:11 32.35591 -39.30370 35230 ft 445 kts 240°
2026-04-13 18:11 32.32409 -39.36647 35232 ft 445 kts 240°
2026-04-13 18:12 32.29245 -39.42879 35236 ft 445 kts 240°
2026-04-13 18:12 32.26055 -39.49151 35233 ft 445 kts 240°
2026-04-13 18:13 32.22863 -39.55416 35234 ft 445 kts 240°
2026-04-13 18:13 32.19669 -39.61674 35234 ft 445 kts 240°
2026-04-13 18:14 32.16475 -39.67924 35233 ft 444 kts 240°
2026-04-13 18:14 32.13303 -39.74119 35235 ft 444 kts 240°
2026-04-13 18:15 32.10105 -39.80355 35236 ft 444 kts 240°
2026-04-13 18:15 32.06904 -39.86588 35237 ft 444 kts 240°
2026-04-13 18:16 32.03699 -39.92818 35235 ft 444 kts 240°
2026-04-13 18:16 32.00511 -39.99006 35237 ft 445 kts 240°
2026-04-13 18:17 31.97265 -40.05212 35230 ft 445 kts 239°
2026-04-13 18:17 31.93981 -40.11385 35238 ft 445 kts 239°
2026-04-13 18:18 31.90685 -40.17572 35239 ft 446 kts 239°
2026-04-13 18:18 31.87397 -40.23750 35237 ft 446 kts 239°
2026-04-13 18:19 31.84125 -40.29895 35237 ft 446 kts 239°
2026-04-13 18:19 31.80827 -40.36079 35241 ft 446 kts 239°
2026-04-13 18:20 31.77527 -40.42259 35239 ft 446 kts 239°
2026-04-13 18:20 31.74223 -40.48435 35234 ft 446 kts 239°
2026-04-13 18:21 31.70940 -40.54560 35231 ft 447 kts 239°
2026-04-13 18:21 31.67627 -40.60734 35240 ft 447 kts 239°
2026-04-13 18:22 31.64307 -40.66911 35240 ft 448 kts 239°
2026-04-13 18:22 31.60979 -40.73091 35236 ft 448 kts 239°
2026-04-13 18:23 31.57669 -40.79229 35230 ft 448 kts 239°
2026-04-13 18:23 31.54333 -40.85405 35233 ft 448 kts 239°
2026-04-13 18:24 31.50997 -40.91570 35249 ft 448 kts 239°
2026-04-13 18:24 31.47653 -40.97741 35234 ft 448 kts 239°
2026-04-13 18:25 31.44337 -41.03850 35234 ft 448 kts 239°
2026-04-13 18:25 31.40994 -41.10000 35236 ft 448 kts 239°
2026-04-13 18:26 31.37649 -41.16143 35239 ft 447 kts 239°
2026-04-13 18:26 31.34303 -41.22279 35249 ft 447 kts 239°
2026-04-13 18:27 31.30976 -41.28369 35248 ft 447 kts 239°
2026-04-13 18:27 31.27629 -41.34487 35235 ft 447 kts 239°
2026-04-13 18:28 31.24276 -41.40607 35246 ft 447 kts 239°
2026-04-13 18:28 31.20920 -41.46723 35246 ft 447 kts 239°
2026-04-13 18:29 31.17560 -41.52836 35240 ft 447 kts 239°
2026-04-13 18:29 31.14219 -41.58904 35245 ft 447 kts 239°
2026-04-13 18:30 31.10857 -41.65000 35248 ft 447 kts 239°
2026-04-13 18:30 31.07491 -41.71096 35238 ft 447 kts 239°
2026-04-13 18:31 31.04124 -41.77183 35239 ft 446 kts 239°
2026-04-13 18:31 31.00777 -41.83226 35231 ft 446 kts 239°
2026-04-13 18:32 30.97401 -41.89309 35229 ft 447 kts 239°
2026-04-13 18:32 30.94018 -41.95399 35244 ft 448 kts 239°
2026-04-13 18:33 30.90624 -42.01498 35239 ft 449 kts 239°
2026-04-13 18:33 30.87224 -42.07597 35240 ft 450 kts 239°
2026-04-13 18:34 30.82127 -42.16724 35237 ft 451 kts 239°
2026-04-13 18:34 30.78706 -42.22836 35239 ft 451 kts 239°
2026-04-13 18:35 30.75280 -42.28950 35239 ft 451 kts 239°
2026-04-13 18:35 30.71872 -42.35020 35241 ft 451 kts 239°
2026-04-13 18:36 30.68439 -42.41128 35239 ft 451 kts 239°
2026-04-13 18:36 30.65004 -42.47228 35241 ft 452 kts 239°
2026-04-13 18:37 30.61562 -42.53332 35240 ft 452 kts 239°
2026-04-13 18:37 30.58116 -42.59434 35243 ft 452 kts 239°
2026-04-13 18:38 30.54688 -42.65494 35240 ft 452 kts 239°
2026-04-13 18:38 30.51232 -42.71596 35243 ft 453 kts 239°
2026-04-13 18:39 30.47768 -42.77700 35242 ft 453 kts 239°
2026-04-13 18:39 30.44302 -42.83799 35237 ft 454 kts 239°
2026-04-13 18:40 30.40849 -42.89867 35243 ft 454 kts 239°
2026-04-13 18:40 30.37367 -42.95977 35242 ft 455 kts 239°
2026-04-13 18:41 30.33878 -43.02088 35244 ft 455 kts 239°
2026-04-13 18:41 30.30385 -43.08198 35235 ft 455 kts 239°
2026-04-13 18:42 30.26911 -43.14264 35235 ft 455 kts 239°
2026-04-13 18:42 30.23408 -43.20373 35236 ft 456 kts 239°
2026-04-13 18:43 30.19898 -43.26484 35241 ft 456 kts 239°
2026-04-13 18:43 30.16384 -43.32594 35240 ft 457 kts 239°
2026-04-13 18:44 30.12858 -43.38714 35240 ft 458 kts 239°
2026-04-13 18:44 30.09350 -43.44794 35238 ft 458 kts 239°
2026-04-13 18:45 30.05815 -43.50911 35239 ft 458 kts 239°
2026-04-13 18:45 30.02280 -43.57020 35239 ft 457 kts 239°
2026-04-13 18:46 29.98744 -43.63121 35238 ft 457 kts 239°
2026-04-13 18:46 29.95213 -43.69203 35239 ft 456 kts 238°
2026-04-13 18:47 29.91704 -43.75240 35236 ft 456 kts 238°
2026-04-13 18:47 29.88172 -43.81307 35236 ft 456 kts 238°
2026-04-13 18:48 29.84640 -43.87363 35241 ft 455 kts 238°
2026-04-13 18:48 29.81134 -43.93368 35239 ft 454 kts 238°
2026-04-13 18:49 29.77605 -43.99403 35237 ft 454 kts 238°
2026-04-13 18:49 29.74079 -44.05423 35233 ft 454 kts 238°
2026-04-13 18:50 29.70549 -44.11442 35237 ft 454 kts 238°
2026-04-13 18:50 29.67013 -44.17461 35236 ft 454 kts 238°
2026-04-13 18:51 29.63506 -44.23424 35235 ft 454 kts 238°
2026-04-13 18:51 29.59966 -44.29432 35240 ft 454 kts 238°
2026-04-13 18:52 29.56422 -44.35439 35237 ft 454 kts 238°
2026-04-13 18:52 29.52874 -44.41446 35237 ft 454 kts 238°
2026-04-13 18:53 29.49325 -44.47443 35238 ft 454 kts 238°
2026-04-13 18:53 29.45793 -44.53403 35236 ft 455 kts 238°
2026-04-13 18:54 29.42234 -44.59400 35237 ft 455 kts 238°
2026-04-13 18:54 29.38673 -44.65392 35237 ft 454 kts 238°
2026-04-13 18:55 29.35135 -44.71337 35237 ft 454 kts 238°
2026-04-13 18:55 29.31572 -44.77315 35236 ft 454 kts 238°
2026-04-13 18:56 29.28008 -44.83287 35236 ft 454 kts 238°
2026-04-13 18:56 29.24448 -44.89243 35236 ft 453 kts 238°
2026-04-13 18:57 29.20882 -44.95199 35234 ft 453 kts 237°
2026-04-13 18:57 29.17340 -45.01109 35235 ft 453 kts 237°
2026-04-13 18:58 29.13771 -45.07053 35234 ft 453 kts 237°
2026-04-13 18:58 29.10200 -45.12993 35226 ft 453 kts 237°
2026-04-13 18:59 29.06624 -45.18933 35236 ft 454 kts 237°
2026-04-13 18:59 29.03042 -45.24875 35238 ft 454 kts 237°
2026-04-13 19:00 28.99484 -45.30769 35222 ft 454 kts 237°
2026-04-13 19:00 28.95894 -45.36706 35240 ft 454 kts 237°
2026-04-13 19:01 28.92301 -45.42641 35232 ft 454 kts 237°
2026-04-13 19:01 28.88731 -45.48528 35230 ft 454 kts 237°
2026-04-13 19:02 28.85138 -45.54445 35232 ft 453 kts 237°
2026-04-13 19:02 28.81543 -45.60359 35241 ft 453 kts 237°
2026-04-13 19:03 28.77950 -45.66260 35232 ft 453 kts 237°
2026-04-13 19:03 28.74355 -45.72156 35220 ft 453 kts 237°
2026-04-13 19:04 28.70780 -45.78012 35242 ft 453 kts 237°
2026-04-13 19:04 28.67175 -45.83907 35226 ft 454 kts 237°
2026-04-13 19:05 28.63567 -45.89800 35233 ft 453 kts 237°
2026-04-13 19:05 28.59979 -45.95652 35223 ft 454 kts 237°
2026-04-13 19:06 28.56360 -46.01547 35231 ft 455 kts 237°
2026-04-13 19:06 28.52738 -46.07437 35221 ft 455 kts 237°
2026-04-13 19:07 28.49110 -46.13330 35211 ft 455 kts 237°
2026-04-13 19:07 28.45502 -46.19182 35237 ft 455 kts 237°
2026-04-13 19:08 28.41867 -46.25069 35228 ft 455 kts 237°
2026-04-13 19:08 28.38230 -46.30952 35226 ft 455 kts 237°
2026-04-13 19:09 28.34595 -46.36823 35220 ft 455 kts 237°
2026-04-13 19:09 28.30976 -46.42660 35231 ft 455 kts 236°
2026-04-13 19:10 28.27328 -46.48537 35228 ft 455 kts 236°
2026-04-13 19:10 28.23677 -46.54410 35216 ft 456 kts 236°
2026-04-13 19:11 28.20021 -46.60282 35235 ft 456 kts 236°
2026-04-13 19:11 28.16386 -46.66113 35229 ft 456 kts 236°
2026-04-13 19:12 28.12723 -46.71981 35224 ft 456 kts 236°
2026-04-13 19:12 28.09061 -46.77839 35211 ft 456 kts 236°
2026-04-13 19:13 28.05390 -46.83706 35221 ft 457 kts 236°
2026-04-13 19:13 28.01735 -46.89536 35225 ft 457 kts 236°
2026-04-13 19:14 27.98049 -46.95410 35224 ft 458 kts 236°
2026-04-13 19:14 27.94357 -47.01285 35228 ft 458 kts 236°
2026-04-13 19:15 27.90664 -47.07152 35224 ft 457 kts 236°
2026-04-13 19:15 27.86979 -47.12999 35222 ft 457 kts 236°
2026-04-13 19:16 27.83319 -47.18799 35219 ft 456 kts 236°
2026-04-13 19:16 27.79637 -47.24626 35223 ft 455 kts 236°
2026-04-13 19:17 27.75957 -47.30443 35223 ft 455 kts 236°
2026-04-13 19:17 27.72276 -47.36253 35220 ft 455 kts 236°
2026-04-13 19:18 27.68617 -47.42020 35220 ft 455 kts 236°
2026-04-13 19:18 27.64932 -47.47821 35218 ft 455 kts 236°
2026-04-13 19:19 27.61248 -47.53612 35219 ft 455 kts 236°
2026-04-13 19:19 27.57556 -47.59409 35219 ft 455 kts 236°
2026-04-13 19:20 27.53860 -47.65204 35209 ft 455 kts 236°
2026-04-13 19:20 27.50185 -47.70959 35215 ft 456 kts 236°
2026-04-13 19:21 27.46480 -47.76752 35217 ft 456 kts 236°
2026-04-13 19:21 27.42771 -47.82545 35219 ft 456 kts 236°
2026-04-13 19:22 27.39083 -47.88298 35209 ft 456 kts 236°
2026-04-13 19:22 27.35370 -47.94080 35213 ft 456 kts 236°
2026-04-13 19:23 27.31650 -47.99868 35211 ft 457 kts 236°
2026-04-13 19:23 27.27925 -48.05655 35208 ft 457 kts 236°
2026-04-13 19:24 27.24195 -48.11441 35206 ft 457 kts 236°
2026-04-13 19:24 27.20491 -48.17181 35211 ft 457 kts 236°
2026-04-13 19:25 27.16754 -48.22965 35212 ft 458 kts 236°
2026-04-13 19:25 27.13012 -48.28748 35199 ft 458 kts 236°
2026-04-13 19:26 27.09267 -48.34528 35221 ft 458 kts 236°
2026-04-13 19:26 27.05543 -48.40268 35204 ft 458 kts 236°
2026-04-13 19:27 27.01791 -48.46044 35208 ft 458 kts 236°
2026-04-13 19:27 26.98036 -48.51817 35195 ft 458 kts 236°
2026-04-13 19:28 26.94283 -48.57580 35212 ft 458 kts 236°
2026-04-13 19:28 26.90522 -48.63347 35199 ft 458 kts 236°
2026-04-13 19:29 26.86784 -48.69073 35199 ft 458 kts 236°
2026-04-13 19:29 26.83018 -48.74833 35193 ft 458 kts 236°
2026-04-13 19:30 26.79250 -48.80589 35190 ft 458 kts 236°
2026-04-13 19:30 26.75479 -48.86342 35207 ft 458 kts 236°
2026-04-13 19:31 26.71731 -48.92053 35202 ft 458 kts 236°
2026-04-13 19:31 26.67955 -48.97799 35193 ft 458 kts 236°
2026-04-13 19:32 26.64183 -49.03534 35193 ft 458 kts 236°
2026-04-13 19:32 26.60403 -49.09271 35200 ft 458 kts 236°
2026-04-13 19:33 26.56646 -49.14967 35196 ft 458 kts 236°
2026-04-13 19:34 26.50968 -49.23561 35194 ft 458 kts 236°
2026-04-13 19:34 26.47180 -49.29286 35198 ft 458 kts 236°
2026-04-13 19:35 26.43393 -49.35001 35182 ft 458 kts 236°
2026-04-13 19:35 26.39624 -49.40683 35181 ft 459 kts 236°
2026-04-13 19:36 26.35827 -49.46399 35189 ft 459 kts 236°
2026-04-13 19:36 26.32027 -49.52115 35185 ft 459 kts 236°
2026-04-13 19:37 26.28221 -49.57830 35191 ft 459 kts 236°
2026-04-13 19:37 26.24411 -49.63544 35173 ft 460 kts 236°
2026-04-13 19:38 26.20627 -49.69214 35181 ft 460 kts 236°
2026-04-13 19:38 26.16805 -49.74932 35185 ft 460 kts 236°
2026-04-13 19:39 26.12988 -49.80637 35180 ft 460 kts 236°
2026-04-13 19:39 26.09163 -49.86347 35177 ft 460 kts 236°
2026-04-13 19:40 26.05361 -49.92015 35172 ft 460 kts 236°
2026-04-13 19:40 26.01532 -49.97718 35179 ft 460 kts 236°
2026-04-13 19:41 25.97650 -50.03378 35173 ft 461 kts 234°
2026-04-13 19:41 25.93616 -50.08917 35172 ft 461 kts 234°
2026-04-13 19:42 25.87572 -50.17160 35163 ft 461 kts 234°
2026-04-13 19:42 25.83541 -50.22695 35172 ft 461 kts 234°
2026-04-13 19:43 25.79515 -50.28233 35166 ft 461 kts 234°
2026-04-13 19:43 25.75515 -50.33730 35169 ft 461 kts 234°
2026-04-13 19:44 25.71487 -50.39261 35162 ft 461 kts 234°
2026-04-13 19:44 25.67459 -50.44781 35170 ft 461 kts 234°
2026-04-13 19:45 25.63420 -50.50310 35168 ft 461 kts 234°
2026-04-13 19:45 25.59388 -50.55823 35165 ft 461 kts 234°
2026-04-13 19:46 25.55378 -50.61300 35159 ft 461 kts 234°
2026-04-13 19:46 25.51341 -50.66807 35173 ft 460 kts 234°
2026-04-13 19:47 25.47991 -50.71372 35161 ft 460 kts 234°
2026-04-13 19:47 25.43959 -50.76860 35157 ft 459 kts 234°
2026-04-13 19:48 25.39280 -50.83220 35150 ft 458 kts 234°
2026-04-13 19:48 25.35938 -50.87759 35159 ft 457 kts 234°
2026-04-13 19:49 25.31927 -50.93200 35160 ft 456 kts 234°
2026-04-13 19:49 25.27923 -50.98625 35151 ft 455 kts 234°
2026-04-13 19:50 25.23931 -51.04027 35142 ft 454 kts 234°
2026-04-13 19:50 25.19936 -51.09428 35153 ft 454 kts 234°
2026-04-13 19:51 25.15962 -51.14795 35157 ft 455 kts 234°
2026-04-13 19:51 25.11949 -51.20207 35154 ft 456 kts 234°
2026-04-13 19:52 25.07926 -51.25628 35153 ft 457 kts 234°
2026-04-13 19:52 25.03892 -51.31056 35150 ft 458 kts 234°
2026-04-13 19:53 24.99880 -51.36448 35157 ft 459 kts 234°
2026-04-13 19:53 24.95828 -51.41889 35155 ft 459 kts 234°
2026-04-13 19:54 24.91769 -51.47331 35146 ft 460 kts 234°
2026-04-13 19:54 24.87706 -51.52773 35146 ft 460 kts 234°
2026-04-13 19:55 24.83642 -51.58210 35148 ft 460 kts 234°
2026-04-13 19:55 24.79604 -51.63606 35144 ft 460 kts 234°
2026-04-13 19:56 24.75538 -51.69034 35145 ft 459 kts 234°
2026-04-13 19:56 24.71476 -51.74449 35131 ft 459 kts 235°
2026-04-13 19:57 24.67421 -51.79848 35137 ft 457 kts 235°
2026-04-13 19:57 24.63406 -51.85189 35143 ft 455 kts 235°
2026-04-13 19:58 24.59374 -51.90548 35141 ft 454 kts 235°
2026-04-13 19:58 24.55349 -51.95891 35136 ft 453 kts 235°
2026-04-13 19:59 24.51333 -52.01216 35132 ft 452 kts 235°
2026-04-13 19:59 24.47352 -52.06489 35151 ft 451 kts 234°
2026-04-13 20:00 24.43350 -52.11785 35138 ft 450 kts 234°
2026-04-13 20:00 24.39356 -52.17064 35140 ft 450 kts 234°
2026-04-13 20:01 24.35360 -52.22340 35125 ft 449 kts 234°
2026-04-13 20:01 24.31368 -52.27603 35131 ft 448 kts 234°
2026-04-13 20:02 24.27407 -52.32822 35131 ft 448 kts 234°
2026-04-13 20:02 24.23422 -52.38065 35131 ft 448 kts 234°
2026-04-13 20:03 24.19428 -52.43316 35130 ft 448 kts 234°
2026-04-13 20:03 24.15442 -52.48553 35127 ft 448 kts 234°
2026-04-13 20:04 24.11472 -52.53758 35127 ft 448 kts 233°
2026-04-13 20:04 24.07468 -52.59003 35128 ft 449 kts 233°
2026-04-13 20:05 24.03456 -52.64255 35127 ft 450 kts 233°
2026-04-13 20:05 23.99436 -52.69511 35111 ft 451 kts 233°
2026-04-13 20:06 23.95413 -52.74765 35139 ft 451 kts 233°
2026-04-13 20:06 23.91405 -52.79995 35123 ft 452 kts 233°
2026-04-13 20:07 23.87360 -52.85267 35126 ft 453 kts 233°
2026-04-13 20:07 23.83308 -52.90542 35123 ft 453 kts 233°
2026-04-13 20:08 23.79251 -52.95816 35130 ft 453 kts 233°
2026-04-13 20:08 23.75224 -53.01047 35134 ft 453 kts 233°
2026-04-13 20:09 23.71173 -53.06305 35113 ft 452 kts 233°
2026-04-13 20:09 23.67128 -53.11549 35116 ft 452 kts 233°
2026-04-13 20:10 23.63079 -53.16792 35098 ft 452 kts 233°
2026-04-13 20:10 23.59057 -53.21995 35120 ft 452 kts 233°
2026-04-13 20:11 23.55004 -53.27233 35131 ft 452 kts 233°
2026-04-13 20:11 23.50949 -53.32468 35127 ft 452 kts 233°
2026-04-13 20:12 23.46894 -53.37698 35120 ft 452 kts 233°
2026-04-13 20:12 23.42864 -53.42889 35089 ft 452 kts 233°
2026-04-13 20:13 23.38803 -53.48115 35115 ft 453 kts 233°
2026-04-13 20:13 23.34726 -53.53357 35119 ft 454 kts 233°
2026-04-13 20:14 23.30637 -53.58608 35115 ft 455 kts 233°
2026-04-13 20:14 23.26539 -53.63865 35114 ft 456 kts 233°
2026-04-13 20:15 23.22461 -53.69091 35106 ft 456 kts 233°
2026-04-13 20:15 23.18351 -53.74352 35121 ft 457 kts 233°
2026-04-13 20:16 23.14236 -53.79615 35111 ft 458 kts 233°
2026-04-13 20:16 23.10104 -53.84894 35113 ft 458 kts 233°
2026-04-13 20:17 23.06001 -53.90130 35112 ft 459 kts 233°
2026-04-13 20:17 23.01860 -53.95409 35112 ft 459 kts 233°
2026-04-13 20:18 22.97717 -54.00685 35121 ft 459 kts 233°
2026-04-13 20:18 22.93578 -54.05951 35106 ft 458 kts 233°
2026-04-13 20:19 22.89473 -54.11167 35107 ft 457 kts 233°
2026-04-13 20:19 22.85355 -54.16396 35091 ft 456 kts 233°
2026-04-13 20:20 22.81234 -54.21624 35105 ft 456 kts 233°
2026-04-13 20:20 22.77106 -54.26855 35115 ft 457 kts 233°
2026-04-13 20:21 22.72967 -54.32094 35109 ft 458 kts 233°
2026-04-13 20:21 22.68845 -54.37307 35107 ft 459 kts 233°
2026-04-13 20:22 22.64688 -54.42558 35091 ft 459 kts 233°
2026-04-13 20:22 22.60524 -54.47812 35106 ft 460 kts 233°
2026-04-13 20:23 22.56353 -54.53070 35106 ft 461 kts 233°
2026-04-13 20:23 22.52204 -54.58296 35101 ft 462 kts 233°
2026-04-13 20:24 22.48014 -54.63567 35104 ft 462 kts 233°
2026-04-13 20:24 22.43820 -54.68838 35090 ft 462 kts 232°
2026-04-13 20:25 22.39630 -54.74098 35098 ft 461 kts 232°
2026-04-13 20:25 22.35474 -54.79310 35103 ft 460 kts 233°
2026-04-13 20:26 22.31300 -54.84540 35096 ft 460 kts 233°
2026-04-13 20:26 22.27129 -54.89762 35098 ft 459 kts 233°
2026-04-13 20:27 22.22962 -54.94974 35087 ft 458 kts 232°
2026-04-13 20:27 22.18828 -55.00138 35102 ft 457 kts 232°
2026-04-13 20:28 22.14672 -55.05325 35095 ft 457 kts 232°
2026-04-13 20:28 22.10510 -55.10515 35095 ft 457 kts 232°
2026-04-13 20:29 22.06348 -55.15700 35095 ft 457 kts 232°
2026-04-13 20:29 22.02185 -55.20882 35095 ft 457 kts 232°
2026-04-13 20:30 21.98051 -55.26021 35090 ft 457 kts 232°
2026-04-13 20:30 21.93887 -55.31191 35088 ft 457 kts 232°
2026-04-13 20:31 21.89725 -55.36355 35094 ft 457 kts 232°
2026-04-13 20:31 21.85556 -55.41524 35096 ft 457 kts 232°
2026-04-13 20:32 21.81412 -55.46654 35084 ft 457 kts 232°
2026-04-13 20:32 21.77247 -55.51807 35086 ft 456 kts 232°
2026-04-13 20:33 21.73086 -55.56950 35086 ft 455 kts 232°
2026-04-13 20:33 21.68954 -55.62053 35087 ft 455 kts 232°
2026-04-13 20:34 21.64800 -55.67178 35085 ft 455 kts 232°
2026-04-13 20:34 21.60643 -55.72300 35083 ft 454 kts 232°
2026-04-13 20:35 21.56503 -55.77397 35077 ft 452 kts 232°
2026-04-13 20:35 21.52375 -55.82474 35078 ft 451 kts 232°
2026-04-13 20:36 21.48279 -55.87509 35082 ft 450 kts 232°
2026-04-13 20:36 21.44154 -55.92575 35080 ft 451 kts 232°
2026-04-13 20:37 21.40025 -55.97640 35072 ft 450 kts 232°
2026-04-13 20:37 21.35908 -56.02685 35077 ft 449 kts 232°
2026-04-13 20:38 21.31792 -56.07724 35078 ft 448 kts 232°
2026-04-13 20:38 21.27720 -56.12705 35073 ft 447 kts 232°
2026-04-13 20:39 21.23621 -56.17715 35072 ft 447 kts 232°
2026-04-13 20:39 21.19524 -56.22718 35067 ft 446 kts 232°
2026-04-13 20:40 21.15432 -56.27710 35069 ft 445 kts 232°
2026-04-13 20:40 21.11371 -56.32659 35072 ft 445 kts 232°
2026-04-13 20:41 21.07285 -56.37636 35075 ft 446 kts 232°
2026-04-13 20:41 21.03188 -56.42621 35074 ft 446 kts 232°
2026-04-13 20:42 20.99084 -56.47609 35073 ft 447 kts 232°
2026-04-13 20:42 20.94973 -56.52601 35074 ft 447 kts 232°
2026-04-13 20:43 20.90884 -56.57562 35080 ft 448 kts 232°
2026-04-13 20:43 20.86763 -56.62558 35070 ft 449 kts 232°
2026-04-13 20:44 20.82622 -56.67574 35068 ft 450 kts 232°
2026-04-13 20:44 20.78482 -56.72584 35069 ft 450 kts 232°
2026-04-13 20:45 20.74332 -56.77601 35053 ft 450 kts 232°
2026-04-13 20:46 20.68145 -56.85071 35072 ft 449 kts 232°
2026-04-13 20:46 20.64006 -56.90064 35061 ft 449 kts 232°
2026-04-13 20:47 20.59870 -56.95049 35062 ft 448 kts 232°
2026-04-13 20:47 20.55767 -56.99989 35064 ft 448 kts 232°
2026-04-13 20:48 20.51634 -57.04963 35062 ft 447 kts 232°
2026-04-13 20:48 20.47516 -57.09912 35053 ft 446 kts 232°
2026-04-13 20:49 20.43406 -57.14847 35058 ft 445 kts 232°
2026-04-13 20:49 20.39295 -57.19780 35058 ft 445 kts 232°
2026-04-13 20:50 20.35210 -57.24677 35054 ft 445 kts 232°
2026-04-13 20:50 20.31099 -57.29603 35037 ft 445 kts 232°
2026-04-13 20:51 20.26990 -57.34520 35053 ft 443 kts 231°
2026-04-13 20:51 20.22894 -57.39418 35055 ft 443 kts 232°
2026-04-13 20:52 20.18822 -57.44284 35056 ft 443 kts 232°
2026-04-13 20:52 20.14719 -57.49181 35055 ft 443 kts 232°
2026-04-13 20:53 20.10610 -57.54082 35053 ft 444 kts 232°
2026-04-13 20:53 20.06500 -57.58980 35046 ft 443 kts 232°
2026-04-13 20:54 20.02407 -57.63852 35041 ft 441 kts 232°
2026-04-13 20:54 19.98350 -57.68679 35042 ft 440 kts 232°
2026-04-13 20:55 19.94268 -57.73531 35051 ft 440 kts 232°
2026-04-13 20:55 19.90185 -57.78381 35051 ft 441 kts 232°
2026-04-13 20:56 19.86099 -57.83230 35049 ft 441 kts 232°
2026-04-13 20:56 19.82009 -57.88079 35044 ft 440 kts 232°
2026-04-13 20:57 19.77961 -57.92874 35049 ft 438 kts 232°
2026-04-13 20:57 19.73893 -57.97689 35044 ft 438 kts 232°
2026-04-13 20:58 19.69834 -58.02491 35048 ft 437 kts 232°
2026-04-13 20:58 19.65764 -58.07301 35043 ft 438 kts 232°
2026-04-13 20:59 19.61700 -58.12100 35027 ft 437 kts 232°
2026-04-13 20:59 19.57675 -58.16847 35034 ft 434 kts 232°
2026-04-13 21:00 19.53647 -58.21595 35041 ft 432 kts 232°
2026-04-13 21:00 19.49626 -58.26334 35046 ft 432 kts 232°
2026-04-13 21:01 19.45601 -58.31072 35047 ft 433 kts 232°
2026-04-13 21:01 19.41569 -58.35814 35045 ft 434 kts 232°
2026-04-13 21:02 19.37548 -58.40539 35046 ft 434 kts 232°
2026-04-13 21:02 19.33512 -58.45277 35046 ft 432 kts 232°
2026-04-13 21:03 19.29494 -58.49989 35027 ft 430 kts 232°
2026-04-13 21:03 19.25487 -58.54687 35033 ft 430 kts 232°
2026-04-13 21:04 19.21483 -58.59378 35046 ft 429 kts 232°
2026-04-13 21:04 19.17508 -58.64032 35043 ft 430 kts 232°
2026-04-13 21:05 19.13498 -58.68722 35036 ft 429 kts 232°
2026-04-13 21:05 19.09492 -58.73402 35032 ft 429 kts 232°
2026-04-13 21:06 19.05520 -58.78041 35034 ft 428 kts 232°
2026-04-13 21:06 19.01526 -58.82701 35037 ft 427 kts 232°
2026-04-13 21:07 18.97539 -58.87350 35032 ft 427 kts 232°
2026-04-13 21:07 18.93549 -58.91999 35034 ft 427 kts 232°
2026-04-13 21:08 18.89558 -58.96645 35015 ft 427 kts 232°
2026-04-13 21:08 18.85599 -59.01250 35021 ft 426 kts 232°
2026-04-13 21:09 18.81619 -59.05876 35032 ft 426 kts 232°
2026-04-13 21:09 18.77634 -59.10505 35028 ft 426 kts 232°
2026-04-13 21:10 18.73648 -59.15131 35031 ft 426 kts 232°
2026-04-13 21:10 18.69688 -59.19723 35026 ft 426 kts 232°
2026-04-13 21:11 18.65701 -59.24344 35027 ft 426 kts 232°
2026-04-13 21:11 18.61717 -59.28958 35024 ft 426 kts 232°
2026-04-13 21:12 18.57723 -59.33580 35030 ft 426 kts 232°
2026-04-13 21:12 18.53730 -59.38197 35026 ft 426 kts 232°
2026-04-13 21:13 18.49761 -59.42783 35020 ft 426 kts 232°
2026-04-13 21:13 18.45763 -59.47399 35022 ft 426 kts 232°
2026-04-13 21:14 18.41767 -59.52009 35005 ft 426 kts 232°
2026-04-13 21:14 18.37798 -59.56585 35017 ft 426 kts 232°
2026-04-13 21:15 18.33802 -59.61188 35028 ft 426 kts 232°
2026-04-13 21:15 18.29803 -59.65791 35023 ft 426 kts 232°
2026-04-13 21:16 18.25802 -59.70394 35024 ft 426 kts 232°
2026-04-13 21:16 18.21830 -59.74960 35021 ft 426 kts 232°
2026-04-13 21:17 18.17844 -59.79539 34997 ft 426 kts 231°
2026-04-13 21:17 18.13832 -59.84143 35013 ft 425 kts 232°
2026-04-13 21:18 18.09833 -59.88731 35025 ft 425 kts 231°
2026-04-13 21:18 18.05832 -59.93319 35025 ft 426 kts 231°
2026-04-13 21:19 18.01825 -59.97908 35019 ft 426 kts 231°
2026-04-13 21:19 17.97583 -60.02230 35021 ft 430 kts 225°
2026-04-13 21:20 17.93019 -60.06291 35018 ft 430 kts 225°
2026-04-13 21:20 17.88464 -60.10363 35004 ft 430 kts 225°
2026-04-13 21:21 17.83920 -60.14438 35020 ft 429 kts 225°
2026-04-13 21:21 17.79409 -60.18486 35018 ft 429 kts 225°
2026-04-13 21:22 17.74867 -60.22558 35012 ft 429 kts 225°
2026-04-13 21:22 17.70325 -60.26628 35014 ft 429 kts 225°
2026-04-13 21:23 17.65790 -60.30688 34988 ft 429 kts 225°
2026-04-13 21:23 17.61283 -60.34720 35017 ft 429 kts 225°
2026-04-13 21:24 17.56744 -60.38778 35001 ft 429 kts 225°
2026-04-13 21:24 17.52198 -60.42840 35000 ft 430 kts 225°
2026-04-13 21:25 17.47677 -60.46874 35000 ft 420 kts 225°
2026-04-13 21:25 17.45468 -60.48843 34532 ft 419 kts 225°
2026-04-13 21:25 17.43279 -60.50797 33856 ft 419 kts 225°
2026-04-13 21:25 17.41049 -60.52788 32929 ft 423 kts 225°
2026-04-13 21:26 17.38801 -60.54796 32145 ft 425 kts 225°
2026-04-13 21:26 17.36556 -60.56796 31474 ft 424 kts 225°
2026-04-13 21:26 17.34306 -60.58800 30818 ft 424 kts 225°
2026-04-13 21:26 17.32059 -60.60802 30161 ft 424 kts 225°
2026-04-13 21:27 17.29809 -60.62805 29393 ft 424 kts 225°
2026-04-13 21:27 17.27568 -60.64800 28692 ft 423 kts 225°
2026-04-13 21:27 17.25330 -60.66792 28019 ft 422 kts 224°
2026-04-13 21:27 17.23094 -60.68781 27357 ft 420 kts 224°
2026-04-13 21:28 17.21001 -60.70825 26714 ft 416 kts 229°
2026-04-13 21:28 17.19071 -60.73072 26062 ft 414 kts 232°
2026-04-13 21:28 17.17228 -60.75386 25411 ft 414 kts 233°
2026-04-13 21:28 17.15404 -60.77717 24763 ft 414 kts 232°
2026-04-13 21:29 17.13570 -60.80045 24114 ft 415 kts 232°
2026-04-13 21:29 17.11718 -60.82367 23442 ft 416 kts 231°
2026-04-13 21:29 17.09849 -60.84681 22708 ft 416 kts 231°
2026-04-13 21:29 17.07973 -60.86983 22048 ft 415 kts 231°
2026-04-13 21:30 17.06124 -60.89241 21417 ft 414 kts 231°
2026-04-13 21:30 17.04258 -60.91514 20781 ft 412 kts 230°
2026-04-13 21:30 17.02391 -60.93785 20164 ft 411 kts 230°
2026-04-13 21:30 17.00528 -60.96049 19545 ft 410 kts 230°
2026-04-13 21:31 16.98669 -60.98310 18912 ft 410 kts 230°
2026-04-13 21:31 16.96810 -61.00569 18279 ft 410 kts 230°
2026-04-13 21:31 16.94951 -61.02827 17574 ft 409 kts 230°
2026-04-13 21:31 16.93099 -61.05078 16931 ft 408 kts 230°
2026-04-13 21:32 16.91253 -61.07319 16300 ft 406 kts 230°
2026-04-13 21:32 16.89429 -61.09557 15674 ft 404 kts 231°
2026-04-13 21:32 16.87659 -61.11776 15058 ft 402 kts 231°
2026-04-13 21:32 16.85886 -61.14015 14513 ft 399 kts 231°
2026-04-13 21:33 16.84123 -61.16245 13914 ft 398 kts 231°
2026-04-13 21:33 16.82357 -61.18474 13264 ft 397 kts 231°
2026-04-13 21:33 16.80603 -61.20684 12680 ft 394 kts 231°
2026-04-13 21:34 16.77123 -61.25058 11636 ft 387 kts 230°
2026-04-13 21:34 16.75418 -61.27199 11238 ft 380 kts 230°
2026-04-13 21:34 16.73770 -61.29266 11060 ft 368 kts 230°
2026-04-13 21:34 16.72166 -61.31279 10970 ft 355 kts 230°
2026-04-13 21:35 16.70650 -61.33178 10800 ft 326 kts 230°
2026-04-13 21:35 16.69259 -61.34923 10546 ft 301 kts 230°
2026-04-13 21:35 16.66680 -61.38155 9980 ft 283 kts 230°
2026-04-13 21:36 16.65416 -61.39738 9593 ft 284 kts 230°
2026-04-13 21:36 16.64151 -61.41323 9232 ft 284 kts 230°
2026-04-13 21:36 16.62905 -61.42883 8891 ft 284 kts 230°
2026-04-13 21:36 16.61644 -61.44462 8547 ft 283 kts 230°
2026-04-13 21:37 16.60388 -61.46035 8205 ft 283 kts 229°
2026-04-13 21:37 16.59128 -61.47611 7863 ft 282 kts 229°
2026-04-13 21:37 16.57870 -61.49185 7514 ft 282 kts 229°
2026-04-13 21:37 16.56613 -61.50759 7174 ft 283 kts 229°
2026-04-13 21:38 16.55356 -61.52331 6836 ft 283 kts 228°
2026-04-13 21:38 16.54092 -61.53910 6494 ft 284 kts 229°
2026-04-13 21:38 16.52828 -61.55490 6136 ft 284 kts 228°
2026-04-13 21:38 16.51580 -61.57049 5773 ft 284 kts 227°
2026-04-13 21:39 16.50315 -61.58630 5446 ft 284 kts 228°
2026-04-13 21:39 16.49053 -61.60207 5095 ft 284 kts 228°
2026-04-13 21:39 16.47788 -61.61786 4759 ft 284 kts 227°
2026-04-13 21:39 16.46535 -61.63352 4452 ft 282 kts 227°
2026-04-13 21:40 16.45285 -61.64914 4161 ft 279 kts 227°
2026-04-13 21:40 16.44073 -61.66430 4120 ft 264 kts 227°
2026-04-13 21:40 16.42908 -61.67883 3921 ft 256 kts 227°
2026-04-13 21:40 16.41792 -61.69276 3845 ft 243 kts 227°
2026-04-13 21:41 16.40743 -61.70565 3685 ft 230 kts 222°
2026-04-13 21:41 16.39498 -61.71618 3622 ft 231 kts 212°
2026-04-13 21:41 16.38183 -61.72564 3589 ft 228 kts 211°
2026-04-13 21:41 16.36895 -61.73498 3587 ft 224 kts 212°
2026-04-13 21:42 16.35621 -61.74436 3599 ft 225 kts 212°
2026-04-13 21:42 16.34333 -61.75381 3596 ft 226 kts 208°
2026-04-13 21:42 16.32898 -61.75846 3613 ft 216 kts 175°
2026-04-13 21:42 16.31531 -61.75364 3590 ft 201 kts 139°
2026-04-13 21:43 16.30809 -61.74241 3578 ft 178 kts 110°
2026-04-13 21:43 16.30439 -61.73038 3611 ft 174 kts 110°
2026-04-13 21:43 16.30067 -61.71840 3433 ft 180 kts 106°
2026-04-13 21:43 16.29775 -61.70609 3210 ft 170 kts 102°
2026-04-13 21:44 16.29545 -61.69447 3007 ft 160 kts 101°
2026-04-13 21:44 16.29328 -61.68297 2782 ft 162 kts 100°
2026-04-13 21:44 16.29117 -61.67159 2549 ft 157 kts 101°
2026-04-13 21:44 16.28913 -61.66051 2317 ft 154 kts 101°
2026-04-13 21:45 16.28711 -61.64960 2100 ft 155 kts 101°
2026-04-13 21:45 16.28506 -61.63860 1923 ft 156 kts 99°
2026-04-13 21:45 16.28303 -61.62756 1712 ft 158 kts 99°
2026-04-13 21:45 16.28098 -61.61649 1474 ft 153 kts 99°
2026-04-13 21:46 16.27905 -61.60614 1258 ft 140 kts 99°
2026-04-13 21:46 16.27728 -61.59654 1090 ft 135 kts 99°
2026-04-13 21:46 16.27546 -61.58665 898 ft 140 kts 102°
2026-04-13 21:46 16.27365 -61.57694 722 ft 133 kts 103°
2026-04-13 21:47 16.27179 -61.56745 546 ft 135 kts 102°
2026-04-13 21:47 16.27010 -61.55749 309 ft 144 kts 103°
2026-04-13 21:47 16.26832 -61.54748 104 ft 137 kts 104°
2026-04-13 21:47 16.26644 -61.53815 26 ft 124 kts 102°
2026-04-13 21:48 16.26521 -61.53154 27 ft 64 kts 101°
2026-04-13 21:48 16.26435 -61.52708 28 ft 59 kts 100°
2026-04-13 21:48 16.26387 -61.52410 29 ft 29 kts 100°
2026-04-13 21:48 16.26391 -61.52248 31 ft 19 kts 41°
2026-04-13 21:49 16.26455 -61.52225 31 ft 0 kts 12°
2026-04-13 21:49 16.26459 -61.52224 31 ft 2 kts 12°
2026-04-13 21:49 16.26481 -61.52220 30 ft 5 kts 12°
2026-04-13 21:50 16.26529 -61.52208 27 ft 10 kts 12°
2026-04-13 21:50 16.26604 -61.52196 30 ft 11 kts
2026-04-13 21:50 16.26621 -61.52193 27 ft 12 kts
2026-04-13 21:51 16.26717 -61.52213 31 ft 19 kts 306°
2026-04-13 21:51 16.26760 -61.52395 27 ft 21 kts 281°
2026-04-13 21:52 16.26800 -61.52616 27 ft 10 kts 281°
2026-04-13 21:52 16.26805 -61.52642 27 ft 6 kts 281°
2026-04-13 21:52 16.26836 -61.52679 29 ft 8 kts 336°
2026-04-13 21:52 16.26884 -61.52679 27 ft 5 kts
2026-04-13 21:53 16.26895 -61.52677 31 ft 3 kts 10°
2026-04-13 21:53 16.26902 -61.52675 31 ft 0 kts 10°